This is the latest recevied weather packets stored in our database for station/object WH6VH. If no packets are shown the sender has not sent any weather packets the latest 10 day(s).
| Time | Temp. | Humidity | Pressure | Rain* | Wind** | Luminosity | Snow |
|---|---|---|---|---|---|---|---|
| 1778069105 | -0.56° C | 95% | 1022.7 hPa | 0 mm | - | - | - |
| 1778067304 | -0.56° C | 95% | 1022.3 hPa | 0 mm | - | - | - |
| 1778066704 | -0.56° C | 95% | 1022.1 hPa | 0 mm | - | - | - |
| 1778065204 | -0.56° C | 95% | 1022 hPa | 0 mm | - | - | - |
| 1778063405 | -0.56° C | 95% | 1022 hPa | 0 mm | - | - | - |
| 1778061905 | -0.56° C | 95% | 1021.9 hPa | 0 mm | - | - | - |
| 1778060705 | -0.56° C | 95% | 1021.9 hPa | 0 mm | - | - | - |
| 1778059805 | -0.56° C | 95% | 1021.6 hPa | 0 mm | - | - | - |
| 1778058605 | -0.56° C | 95% | 1021.4 hPa | 0 mm | - | - | - |
| 1778053806 | -0.56° C | 95% | 1021.3 hPa | 0 mm | - | - | - |
| 1778052305 | -0.56° C | 95% | 1021.2 hPa | 0 mm | - | - | - |
| 1778047805 | 0° C | 95% | 1020.2 hPa | 0 mm | - | - | - |
| 1778047507 | 0° C | 95% | 1020.2 hPa | 0 mm | - | - | - |
| 1778045405 | 0° C | 95% | 1019.9 hPa | 0 mm | - | - | - |
| 1778040605 | 0° C | 94% | 1019.6 hPa | 0 mm | - | - | - |
| 1778032505 | 0.56° C | 94% | 1016.4 hPa | 0 mm | - | - | - |
| 1778031605 | 0.56° C | 94% | 1016.1 hPa | 0 mm | - | - | - |
| 1778027406 | 0.56° C | 93% | 1014.9 hPa | 0 mm | - | - | - |
| 1778025006 | 1.11° C | 92% | 1014.1 hPa | 0.76 mm | - | - | - |
| 1778022606 | 2.78° C | 91% | 1014.1 hPa | 1.27 mm | - | - | - |
| 1778022004 | 3.33° C | 91% | 1013.6 hPa | 1.02 mm | - | - | - |
| 1778021405 | 3.33° C | 91% | 1013.1 hPa | 1.02 mm | - | - | - |
| 1778019905 | 4.44° C | 92% | 1012.7 hPa | 0.51 mm | - | - | - |
| 1778018705 | 4.44° C | 92% | 1012.2 hPa | 0.76 mm | - | - | - |
| 1778017503 | 4.44° C | 92% | 1012.2 hPa | 0.76 mm | - | - | - |
* Rain latest hour (hover to see other rain measurements)
** Current wind speed in m/s (hover to see current wind gust speed)